LSP Weather Reports


time (UTC)temp
C
wind
direction
speed
KPH
gust
KPH
rain 1hr
cm
rain 24hr
cm
rain mn
cm
humidity
%
barometer
mb
20260507040054 8 292 4.8 16.1 0.03 0.81 0.00 77 1005.4
20260507034558 8 300 3.2 12.9 0.05 0.81 0.81 77 1005.4
20260507033054 9 321 4.8 14.5 0.05 0.81 0.81 77 1005.3
20260507031553 9 286 4.8 16.1 0.05 0.81 0.81 77 1005.4
20260507030053 10 333 6.4 20.9 0.05 0.79 0.79 76 1005.0
20260507024558 10 301 6.4 20.9 0.05 0.76 0.76 77 1004.9
20260507023054 11 294 6.4 19.3 0.08 0.76 0.76 78 1004.9
20260507021557 11 301 4.8 17.7 0.08 0.76 0.76 78 1004.6
20260507020055 12 308 3.2 14.5 0.05 0.74 0.74 80 1004.6
20260507014552 12 337 1.6 6.4 0.15 0.71 0.71 83 1004.7
20260507013054 12 288 3.2 8.0 0.18 0.69 0.69 83 1004.5
20260507011552 12 284 3.2 9.7 0.20 0.69 0.69 82 1004.5
20260507010110 12 289 3.2 12.9 0.20 0.69 0.69 79 1004.4
20260507004553 13 340 3.2 12.9 0.05 0.53 0.53 72 1004.1
20260507003057 15 53 3.2 12.9 0.03 0.51 0.51 74 1003.5
20260507001559 15 351 0.0 12.9 0.00 0.48 0.48 74 1003.3
20260507000101 15 184 4.8 19.3 0.00 0.48 0.48 74 1003.3
20260506234602 15 189 6.4 27.4 0.00 0.53 0.48 73 1003.1
20260506233100 16 276 4.8 20.9 0.00 0.53 0.48 71 1003.0
20260506231552 16 222 6.4 22.5 0.00 0.53 0.48 70 1002.9
20260506230057 16 355 3.2 19.3 0.00 0.53 0.48 70 1002.8
20260506224554 16 200 6.4 20.9 0.00 0.53 0.48 69 1003.1
20260506223059 16 280 6.4 19.3 0.00 0.53 0.48 69 1003.0
20260506221555 16 0 3.2 22.5 0.00 0.53 0.48 70 1003.2
20260506220054 16 198 4.8 14.5 0.00 0.53 0.48 70 1003.4
20260506214601 16 210 1.6 19.3 0.00 0.53 0.48 71 1003.4
20260506213056 16 213 3.2 14.5 0.00 0.53 0.48 71 1003.5
20260506211554 16 216 1.6 32.2 0.00 0.53 0.48 72 1003.6
20260506210053 16 59 3.2 14.5 0.03 0.53 0.48 73 1003.6
20260506204555 16 291 3.2 9.7 0.13 0.53 0.48 75 1003.7
20260506203053 16 0 0.0 9.7 0.18 0.53 0.48 78 1004.0
20260506201553 15 0 3.2 9.7 0.18 0.53 0.48 78 1004.2
20260506200052 15 257 0.0 6.4 0.18 0.51 0.46 77 1004.2
20260506194552 15 0 0.0 1.6 0.10 0.41 0.36 76 1004.3
20260506193052 16 0 0.0 3.2 0.05 0.36 0.30 74 1004.4
20260506191557 16 0 0.0 8.0 0.10 0.36 0.30 73 1004.6
20260506190058 16 165 1.6 8.0 0.10 0.30 0.25 72 1004.9
20260506184558 16 179 3.2 11.3 0.15 0.30 0.25 72 1005.0
20260506183053 16 185 3.2 14.5 0.20 0.30 0.25 74 1004.9
20260506181552 16 0 1.6 9.7 0.18 0.25 0.20 73 1005.6
20260506180055 16 0 3.2 9.7 0.15 0.20 0.15 71 1005.7
20260506174559 17 271 0.0 6.4 0.10 0.15 0.10 71 1005.7
20260506173122 17 0 0.0 3.2 0.05 0.10 0.05 69 1005.6
20260506171556 18 0 0.0 11.3 0.03 0.08 0.03 65 1005.5
20260506170056 18 0 1.6 6.4 0.00 0.05 0.00 62 1005.5
20260506164552 18 0 3.2 14.5 0.00 0.05 0.00 60 1005.5
20260506163056 17 355 0.0 6.4 0.00 0.05 0.00 62 1005.7
20260506161600 17 0 0.0 4.8 0.00 0.05 0.00 63 1006.0
20260506160109 18 0 0.0 0.0 0.00 0.05 0.00 61 1006.5
20260506154601 18 0 0.0 3.2 0.00 0.05 0.00 59 1007.1
20260506153054 18 0 0.0 11.3 0.00 0.05 0.00 59 1007.0
20260506151555 17 234 0.0 8.0 0.00 0.05 0.00 60 1007.3
20260506150100 17 0 0.0 9.7 0.00 0.05 0.00 60 1007.0
20260506144604 17 180 3.2 12.9 0.00 0.05 0.00 60 1007.3
20260506143055 17 0 4.8 17.7 0.00 0.05 0.00 60 1007.0
20260506141551 17 273 3.2 17.7 0.00 0.05 0.00 61 1007.0
20260506140105 16 294 4.8 14.5 0.00 0.05 0.00 61 1007.0
20260506134554 16 308 3.2 8.0 0.00 0.05 0.00 61 1007.3
20260506133130 16 198 1.6 19.3 0.00 0.05 0.00 61 1007.6
20260506131548 16 0 4.8 20.9 0.00 0.05 0.00 61 1007.5
20260506130126 16 265 3.2 12.9 0.00 0.05 0.00 61 1007.4
20260506124554 16 271 4.8 17.7 0.00 0.05 0.00 61 1007.6
20260506123052 15 360 4.8 11.3 0.00 0.05 0.00 63 1007.3
20260506121554 13 22 0.0 4.8 0.00 0.05 0.00 66 1007.5
20260506120103 13 0 0.0 4.8 0.00 0.05 0.00 66 1007.8
20260506114602 13 0 0.0 0.0 0.00 0.05 0.00 65 1007.7
20260506113055 13 0 0.0 0.0 0.00 0.05 0.00 66 1007.7
20260506111556 12 0 0.0 0.0 0.00 0.05 0.00 66 1007.7
20260506110057 12 0 0.0 0.0 0.00 0.05 0.00 66 1007.8
20260506104600 13 0 0.0 4.8 0.00 0.05 0.00 65 1008.2
20260506103057 13 0 0.0 4.8 0.00 0.05 0.00 63 1008.2
20260506101550 14 0 0.0 0.0 0.00 0.05 0.00 64 1007.7
20260506100108 14 0 0.0 3.2 0.00 0.05 0.00 61 1007.7
20260506094602 15 198 1.6 4.8 0.00 0.05 0.00 59 1007.3
20260506093053 15 0 0.0 6.4 0.00 0.05 0.00 59 1007.4
20260506091553 16 309 0.0 4.8 0.00 0.05 0.00 58 1007.4
20260506090054 16 311 0.0 8.0 0.00 0.05 0.00 57 1007.5
20260506084554 16 243 1.6 8.0 0.00 0.05 0.00 57 1007.6
20260506083057 16 199 1.6 8.0 0.00 0.05 0.00 56 1007.6
20260506081605 16 246 3.2 14.5 0.00 0.05 0.00 55 1007.4
20260506073052 17 284 4.8 11.3 0.00 0.05 0.00 54 1007.3
20260506071555 17 183 4.8 19.3 0.00 0.05 0.00 53 1007.4
20260506061551 17 180 8.0 17.7 0.00 0.05 0.00 51 1007.0
20260506044554 18 293 3.2 16.1 0.00 0.05 0.00 52 1007.2
20260506043107 18 284 0.0 11.3 0.00 0.05 0.00 53 1007.4
20260506041601 18 0 0.0 11.3 0.00 0.05 0.00 52 1007.2